Terminal Aerodrome Forecast
Issued by NWS Tulsa, OK

Home | Current Version | Previous Version | Text Only | Print | Product List | Glossary On
Versions: 1 2 3 4 5 6 7 8 9 10 11 12
000
FTUS44 KTSA 031120
TAFFSM
TAF
KFSM 031120Z 0312/0412 07003KT P6SM SCT100
     FM031500 VRB06KT P6SM SCT100
     FM040200 08004KT P6SM SCT120 BKN200=

USA.gov is the U.S. government's official web portal to all federal, state and local government web resources and services.